This is the latest recevied weather packets stored in our database for station/object KN6WGU. If no packets are shown the sender has not sent any weather packets the latest 10 day(s).
| Time | Temp. | Humidity | Pressure | Rain* | Wind** | Luminosity | Snow |
|---|---|---|---|---|---|---|---|
| 1778085655 | 10.56° C | 76% | 1006.3 hPa | 0 mm | - | 141 W/m² | - |
| 1778085350 | 10.56° C | 78% | 1006 hPa | 0 mm | - | 132 W/m² | - |
| 1778085045 | 10.56° C | 77% | 1006 hPa | 0 mm | - | 212 W/m² | - |
| 1778084742 | 10.56° C | 77% | 1005.8 hPa | 0 mm | - | 59 W/m² | - |
| 1778084434 | 10° C | 79% | 1005.9 hPa | 0 mm | - | 49 W/m² | - |
| 1778084131 | 10° C | 78% | 1005.8 hPa | 0 mm | - | 48 W/m² | - |
| 1778083827 | 10.56° C | 76% | 1005.9 hPa | 0 mm | - | 49 W/m² | - |
| 1778083525 | 10.56° C | 76% | 1005.6 hPa | 0 mm | - | 55 W/m² | - |
| 1778083222 | 10.56° C | 76% | 1005.5 hPa | 0 mm | - | 51 W/m² | - |
| 1778082921 | 10° C | 76% | 1005.8 hPa | 0 mm | - | 51 W/m² | - |
| 1778081812 | 10° C | 76% | 1005.5 hPa | 0 mm | - | 76 W/m² | - |
| 1778081510 | 10.56° C | 76% | 1005.7 hPa | 0 mm | - | 79 W/m² | - |
| 1778081207 | 10° C | 77% | 1005.2 hPa | 0 mm | - | 69 W/m² | - |
| 1778080904 | 10° C | 75% | 1005 hPa | 0 mm | - | 78 W/m² | - |
| 1778080603 | 10° C | 78% | 1005.2 hPa | 0 mm | - | 192 W/m² | - |
| 1778080299 | 10° C | 81% | 1004.8 hPa | 0 mm | - | 74 W/m² | - |
| 1778079996 | 10° C | 81% | 1004.7 hPa | 0 mm | - | 72 W/m² | - |
| 1778079693 | 10° C | 81% | 1004.8 hPa | 0 mm | - | 61 W/m² | - |
| 1778079390 | 10° C | 81% | 1004.8 hPa | 0 mm | - | 73 W/m² | - |
| 1778079086 | 10.56° C | 82% | 1004.8 hPa | 0 mm | - | 111 W/m² | - |
| 1778078784 | 10.56° C | 83% | 1004.8 hPa | 0 mm | - | 109 W/m² | - |
| 1778078480 | 10.56° C | 82% | 1004.7 hPa | 0 mm | - | 101 W/m² | - |
| 1778078179 | 10.56° C | 82% | 1004.7 hPa | 0 mm | - | 144 W/m² | - |
| 1778077876 | 11.11° C | 79% | 1004.5 hPa | 0 mm | - | 86 W/m² | - |
| 1778077574 | 11.11° C | 77% | 1004.1 hPa | 0 mm | - | 181 W/m² | - |
* Rain latest hour (hover to see other rain measurements)
** Current wind speed in m/s (hover to see current wind gust speed)